Regional Weather Roundup
Issued by NWS Albany, NY

Current Version | Previous Version | Text Only | Print | Product List | Glossary On
Versions: 1 2 3 4 5 6 7 8 9 10 11 12 13 14 15 16 17 18 19 20 21 22 23 24 25 26 27 28 29 30 31 32 33 34 35 36 37 38 39 40 41 42 43 44 45 46 47 48 49 50
000
ASUS41 KALY 050110
RWRALY

NEW YORK STATE HOURLY WEATHER ROUNDUP
NATIONAL WEATHER SERVICE ALBANY NY
800 PM EST SUN DEC 04 2016

NOTE: "FAIR" INDICATES FEW OR NO CLOUDS BELOW 12,000 FEET WITH NO
SIGNIFICANT WEATHER AND/OR NO OBSTRUCTIONS TO VISIBILITY.

NYZ032-033-038>043-046>054-057>066-NYZ062>081-082-084-050200-
EAST


CITY           SKY/WX    TMP DP  RH WIND       PRES   REMARKS
ALBANY         CLOUDY    25  19  78 CALM      30.21F
GLENS FALLS    CLOUDY    24  18  77 CALM      30.20F
POUGHKEEPSIE   CLOUDY    30  22  72 CALM      30.20S
NEWBURGH       CLOUDY    32  23  69 NE8       30.20S WCI  25
MONTGOMERY     CLOUDY    32  22  66 NE6       30.18F WCI  26
WHITE PLAINS   CLOUDY    35  21  56 NE5       30.17S WCI  31
ISLIP          CLOUDY    34  26  72 CALM      30.19F
NEW YORK CITY  CLOUDY    44  24  45 E12       30.19S
CENTRAL PARK   CLOUDY    42  25  50 NE7       30.20F
$$

NYZ005>009-017-018-044>046-055-056-050200-
CENTRAL


CITY           SKY/WX    TMP DP  RH WIND       PRES   REMARKS
FULTON         MOCLDY    30  23  75 E5        30.12F WCI  25
SYRACUSE       CLOUDY    28  22  78 E6        30.13F WCI  22
ROME           MOCLDY    25  22  88 E8        30.16F WCI  16
ELMIRA         CLOUDY    36  24  62 SE5       30.10F WCI  32
BINGHAMTON     MOCLDY    28  22  78 SE3       30.07F
MONTICELLO     CLOUDY    28  21  74 E5        30.14S WCI  23
$$

NYZ026>034-041>043-087-050200-
NORTH


CITY           SKY/WX    TMP DP  RH WIND       PRES   REMARKS
WATERTOWN      CLOUDY    22  18  85 E6        30.14F WCI  14
FORT DRUM      NOT AVBL
OGDENSBURG     MOCLDY    24  22  91 CALM      30.17F
MASSENA        CLEAR     22  18  85 CALM      30.20F
SARANAC LAKE   PTCLDY    18  15  88 NE3       30.09F
PLATTSBURGH    CLEAR     25  19  78 CALM      30.21F
$$

NYZ001>004-010>016-019>021-085-050200-
WEST


CITY           SKY/WX    TMP DP  RH WIND       PRES   REMARKS
NIAGARA FALLS  CLOUDY    38  26  62 SE8       30.03F WCI  32
BUFFALO        MOCLDY    37  26  64 SE7       30.03F WCI  32
DUNKIRK        CLOUDY    38  28  67 SE8       30.00F WCI  32
JAMESTOWN      CLOUDY    34  25  69 SE9       29.95F WCI  26
WELLSVILLE     CLOUDY    34  24  67 SE12      30.00F WCI  25
ROCHESTER      CLOUDY    35  27  72 E9        30.07F WCI  28
PENN YAN       MOCLDY    35  25  66 SE3       30.08F
$$

             KEY
       WCI = WIND CHILL INDEX
       VSB = VISIBILITY
       HX  = HEAT INDEX
$$



USA.gov is the U.S. government's official web portal to all federal, state and local government web resources and services.